Weather History for Prescott, AZ

Change the Weather History Date:

Thursday, November 14, 2013

  Actual Average Record
Temperature  
Mean Temperature 53 °F 47 °F  
Max Temperature 70 °F 61 °F 75 °F (1974)
Min Temperature 35 °F 32 °F 18 °F (1985)
Degree Days  
Heating Degree Days 12    
Month to date heating degree days 192  
Since 1 July heating degree days 578  
Cooling Degree Days 0    
Month to date cooling degree days 0  
Year to date cooling degree days 1127  
Growing Degree Days 2 (Base 50)    
Moisture  
Dew Point 27 °F    
Average Humidity 43    
Maximum Humidity 67    
Minimum Humidity 14    
Precipitation  
Precipitation 0.00 in 0.03 in 0.97 in (1993)
Month to date precipitation 0.00 0.40  
Year to date precipitation 10.93 12.49  
Sea Level Pressure  
Sea Level Pressure 29.95 in    
Wind  
Wind Speed 6 mph (SSW)    
Max Wind Speed 18 mph    
Max Gust Speed 26 mph    
Visibility 10 miles    
Events      
T = Trace of Precipitation, MM = Missing Value Source: NWS Daily Summary

Daily Weather History Graph

Daily Weather History Graph

Search for Another Location

Airport:

Trip Planner

Search our weather history database for the weather conditions in past years. The results will help you decide how hot, cold, wet, or windy it might be!

Date:

Astronomy

Nov. 14, 2013 Rise Set
Actual Time 7:02 AM MST 5:25 PM MST
Civil Twilight 6:36 AM MST 5:51 PM MST
Nautical Twilight 6:05 AM MST 6:22 PM MST
Astronomical Twilight 5:35 AM MST 6:52 PM MST
Moon 3:43 PM MST (11/14) 4:08 AM MST (11/14)
Length of Visible Light 11h 15m
Length of Day
10h 22m
Waxing Gibbous, 92% of the Moon is Illuminated
Nov 14
Waxing Gibbous
Nov 17
Full
Nov 25
Last Quarter
Dec 2
New
Dec 9
First Quarter

Hourly Weather History & Observations

Time (MST) Temp. Windchill Dew Point Humidity Pressure Visibility Wind Dir Wind Speed Gust Speed Precip Events Conditions
12:53 AM 43.0 °F 40.3 °F 32.0 °F 65% 30.01 in 10.0 mi South 4.6 mph 26.5 mph N/A   Scattered Clouds
1:53 AM 41.0 °F 39.0 °F 30.0 °F 65% 30.01 in 9.0 mi SSW 3.5 mph - N/A   Clear
2:53 AM 39.9 °F 35.8 °F 28.0 °F 63% 30.00 in 10.0 mi SSW 5.8 mph - N/A   Clear
3:53 AM 39.0 °F 35.7 °F 27.0 °F 62% 29.99 in 10.0 mi South 4.6 mph - N/A   Clear
4:53 AM 37.9 °F 34.4 °F 25.0 °F 60% 30.00 in 10.0 mi South 4.6 mph - N/A   Clear
5:53 AM 36.0 °F 32.1 °F 24.1 °F 62% 30.04 in 10.0 mi SSW 4.6 mph - N/A   Clear
6:53 AM 37.9 °F 31.5 °F 25.0 °F 60% 30.06 in 10.0 mi SSW 9.2 mph - N/A   Clear
7:53 AM 41.0 °F 38.0 °F 26.1 °F 55% 30.06 in 10.0 mi SSW 4.6 mph - N/A   Clear
8:53 AM 50.0 °F - 27.0 °F 41% 30.05 in 10.0 mi Calm Calm - N/A   Clear
9:53 AM 55.9 °F - 27.0 °F 33% 30.04 in 10.0 mi Calm Calm - N/A   Clear
10:53 AM 60.1 °F - 26.1 °F 27% 30.02 in 9.0 mi Calm Calm - N/A   Clear
11:53 AM 64.0 °F - 24.1 °F 22% 29.98 in 10.0 mi Variable 3.5 mph - N/A   Clear
12:53 PM 68.0 °F - 23.0 °F 18% 29.94 in 10.0 mi NNW 3.5 mph - N/A   Partly Cloudy
1:53 PM 69.1 °F - 18.0 °F 14% 29.91 in 10.0 mi North 4.6 mph - N/A   Clear
2:53 PM 69.1 °F - 17.1 °F 14% 29.89 in 10.0 mi ENE 4.6 mph - N/A   Clear
3:53 PM 68.0 °F - 21.0 °F 17% 29.88 in 10.0 mi West 11.5 mph - N/A   Clear
4:53 PM 64.0 °F - 23.0 °F 21% 29.88 in 10.0 mi WSW 8.1 mph - N/A   Clear
5:53 PM 57.9 °F - 28.0 °F 32% 29.89 in 10.0 mi SW 8.1 mph - N/A   Clear
6:53 PM 57.0 °F - 30.0 °F 36% 29.89 in 10.0 mi SSW 9.2 mph - N/A   Clear
7:53 PM 54.0 °F - 30.9 °F 41% 29.88 in 10.0 mi SSW 10.4 mph - N/A   Clear
8:53 PM 51.1 °F - 30.9 °F 46% 29.86 in 10.0 mi SW 8.1 mph - N/A   Clear
9:53 PM 48.9 °F - 32.0 °F 52% 29.83 in 10.0 mi South 9.2 mph - N/A   Clear
10:53 PM 46.0 °F 43.1 °F 33.1 °F 61% 29.82 in 10.0 mi SSW 5.8 mph - N/A   Clear
11:53 PM 46.0 °F 43.1 °F 32.0 °F 58% 29.79 in 7.0 mi SW 5.8 mph - N/A   Clear